AQI (34)

Current Conditions for Foresthill, CA. Sunny, Dry   
Visibility: 10 miles
Foresthill Advisory text:

  Summary / Temperature 

Current Temperature
37.6°F
3.1°C
(24/hr Ago)
31.6°F
(Apparent temp)
32.6°F
Cool
Wind Chill Graphs
37.6°F 
Wind Chill-Avg
36.4°F 2.4°C
 --- Virtual Temp: 38.5°F ---

 Temp Rate:

 24/hr Difference:

 Avg Running Temp:

 Todays High:

 Todays Low:

 Y-days High:

 Y-days Low:

 Todays WChill:

 Y-days WChill:

 Evapotranspiration:

+1.0°F/hr 

+6°F

36.9°F

37.7°F 3:31pm

21.9°F 6:18am

37.7°F 1:55pm

25.4°F 11:46pm

9.2°F 7:21am

20.4°F 9:19am

0.058 in

115' Above Ground

 Temperature:

 6'AGL VRS 115'AGL:

 Avg Running Temp:

 Humidity:

 Todays High:

 Todays Low:

 Y-days High:

 Y-days Low:

40.0°F 

+2.4°F

39.5°F

48% 

40.0°F 1:45pm

24.0°F 3:29am

37.0°F 1:41pm

28.0°F 11:33pm

Temp & Humidity Graphs

  Wind 

Wind Speed

 Calm

Gusting to

 7.0 mph

Wind from WNW

295°  WNW

Calm

 Avg speed:

 Wind Run:

 Peak Gust:

  1.0 mph 

11.0 miles

  15.0 mph 7:17am

  Almanac  

Moon age: 8 days,2 hours,0 minutes,58%

Waxing Gibbous
57%
Illuminated
8 days in cycle

 Moonrise:

 Moonset:

 Sunrise:

 Sunset:

 Solar Noon:

11:32am

1:01am

6:41am

5:47pm

12:17pm

2min 28s more daylight tomorrow 

  Solar Radiation 

(Current Solar)
  287 W/m2 (89%)
(Todays High)
 705 W/m2@12:20pm
Feels like: 40.3°F in the sun

Rain

 Rain Today:

 Rain Rate (/hr):

 Rain last hour:

 Rain Yesterday:

 This Month:

 Season Total:

1 Day Since Last Dry Day

0.00 in

0.000 in

0.00 in

0.24 in

0.55 in

22.89 in

Updated Time

Updated: 2/23/18  4:00pm

(Updated  sec ago)

Humidity & Barometer

 Humidity:

 Wetbulb:

 Dew Point:

 Barometer:

60% 

33.4°F 

25.0°F 

30.440 inHg 

 Baro Trend:  Steady 
Northern Calif
Preparedness
Fire 
Level 

    UV Index  

(Current UV)
0.7  Low
(Todays High) @ 11:44am
3.1   Medium

National Weather Service Forecast

This
Afternoon
This Afternoon: Sunny
Sunny
Tonight

Tonight: Mostly Clear
Mostly Clear
Saturday

Saturday: Mostly Sunny
Mostly Sunny
Saturday
Night
Saturday Night: Mostly Clear
Mostly Clear
Sunday

Sunday: Mostly Sunny then Slight Chance Rain Showers
Mostly Sunny
Sunday
Night
Sunday Night: Rain And Snow Showers
Rain And Snow Showers
Hi 44 °F Lo 28 °F Hi 45 °F Lo 31 °F Hi 50 °F Lo 36 °F

Foresthill Probe 2 Stats  
Foresthill Probe 2: is located on Thomas Street
at 3000 feet. The main Foresthill Weather site
is located on Melody ln at the 2860 foot elevation

Calm
37.7°F
3.2°C
Temp Rate:
0°F
Calm
Gusting to
2.0 mph
(Humidity)
66%
Wind from NNW
334°  NNW
Updated: 23/02/18 - 15:56:42
 Todays High: 39.6°F 14:22
 Todays Low: 19.8°F 06:14
 Rain Today: 0.23 in
 Season Total: 23.60 in

Foresthill Wx: Monthly,Yearly, Highs and Lows 

Foresthill  
This Weather Data is coming from the main Foresthill
Weather site located on Melody ln at the 2860 foot
elevation
Not Foresthill Probe 2
Weather Data
Month
  High
Month
  Low
Year
High
Year
Low
Temp 67.9°F
2/3/18
21.9°F
2/23/18
67.9°F
2/3/18
21.9°F
2/23/18
Humidity 100%
2/12/18
15%
2/10/18
100%
1/8/18
15%
2/10/18
Heat Index 68.3°F
2/3/18
27.1°F
2/20/18
68.3°F
2/3/18
27.1°F
2/20/18
Wind Chill 67.9°F
2/3/18
9.2°F
2/23/18
67.9°F
2/3/18
9.2°F
2/23/18
Wind Gust 31 mph
2/12/18
0 mph
2/1/18
31 mph
1/16/18
0 mph
1/1/18
Barometer 30.46 in
2/23/18
29.74 in
2/11/18
30.55 in
1/27/18
29.63 in
1/9/18
ET 0.10 in
2/3/18
0.00 in
2/1/18
0.10 in
2/3/18
0.00 in
1/1/18
Dew Point 51.5°F
2/2/18
7.6°F
2/11/18
52.5°F
1/5/18
7.6°F
2/11/18
Pacific Satellite US Radar Satellite Imagery Sacramento,CA.  (click to enlarge)
NWS Weather Forecast - Summary
Updated: Fri Feb 23 2018 .DISC - 3:00pm (PST)
Current Interstate Highway Conditions for I-80 & US-50

[I 80: IN THE SAN FRANCISCO BAY AREA - SOLANO CO]
  A high wind advisory is in effect at the san francisco-oakland bay bridge /in san francisco/ (san francisco,alameda co) - travel is not recommended for campers, trailers or permit loads

[I 80: IN THE NORTHERN CALIFORNIA AREA & SIERRA NEVADA]
no traffic restrictions are reported for this area.

[US 50: IN THE SACRAMENTO VALLEY & THE LAKE TAHOE BASIN]
no traffic restrictions are reported for this area.
NWS Weather Forecast: This Afternoon and Tonight (Updated: Fri, 23-Feb-2018 2:41pm PST)
This
Afternoon
This Afternoon: Sunny
Sunny

Hi 44 °F
NWS forecast: Sunny. High near 44, with temperatures falling to around 36 in the afternoon. West northwest wind around 6 mph.
Tonight

Tonight: Mostly Clear
Mostly Clear

Lo 28 °F
NWS forecast: Mostly clear, with a low around 28. Northeast wind around 6 mph.
YR.NO 10 Day Weather forecast
Last update: 02/23/2018 @ 11:37
Next update: 02/24/2018 @ 00:00
Provided by: 22
      Temperature Precipitation Pressure Wind  
Today
02/23/2018
13:00 18:00 41°F   30.29 inHg Light breeze from west 4 mph
  18:00 00:00 32°F   30.33 inHg Light breeze from west-northwest 5 mph
    (Click to enlarge)
meteogram

    Forecast for next 9 days

      Temperature Precip Pressure Wind  
Saturday
02/24/2018
00:00 06:00 19°F   30.36 inHg Light breeze from east-northeast 7 mph
  06:00 12:00 19°F   30.35 inHg Light breeze from east 4 mph
  12:00 18:00 41°F   30.35 inHg Gentle breeze from south-southwest 10 mph
  18:00 00:00 36°F   30.29 inHg Light air from east 1 mph
      Temperature Precip Pressure Wind  
Sunday
02/25/2018
00:00 06:00 27°F   30.34 inHg Light breeze from east-northeast 6 mph
  06:00 12:00 23°F   30.27 inHg Gentle breeze from east-northeast 8 mph
  12:00 18:00 48°F   30.28 inHg Light breeze from west-southwest 6 mph
  18:00 00:00 39°F   30.19 inHg Light breeze from southeast 4 mph
      Temperature Precip Pressure Wind  
Monday
02/26/2018
00:00 06:00 34°F 0.07 in 30.14 inHg Light breeze from south-southeast 7 mph
  04:00 10:00 32°F 0.16 in 30.09 inHg Gentle breeze from south-southeast 8 mph
  10:00 16:00 34°F 0.18 in 30.01 inHg Light breeze from south-southeast 6 mph
  16:00 22:00 36°F 0.07 in 29.91 inHg Light air from west-northwest 2 mph
  22:00 04:00 32°F   29.90 inHg Light breeze from north 5 mph
      Temperature Precip Pressure Wind  
Tuesday
02/27/2018
04:00 10:00 30°F   29.92 inHg Light breeze from northeast 5 mph
  10:00 16:00 41°F   29.99 inHg Light air from west-northwest 3 mph
  16:00 22:00 45°F   29.99 inHg Light breeze from west-northwest 7 mph
  22:00 04:00 27°F   30.07 inHg Gentle breeze from east-northeast 8 mph
      Temperature Precip Pressure Wind  
Wednesday
02/28/2018
04:00 10:00 21°F   30.05 inHg Light breeze from east-northeast 6 mph
  10:00 16:00 41°F   30.12 inHg Light breeze from south-southwest 5 mph
  16:00 22:00 43°F   30.06 inHg Light breeze from southwest 5 mph
  22:00 04:00 36°F 0.19 in 30.05 inHg Light breeze from southeast 6 mph
      Temperature Precip Pressure Wind  
Thursday
03/01/2018
04:00 10:00 34°F 0.36 in 30.00 inHg Gentle breeze from south-southeast 8 mph
  10:00 16:00 36°F 0.65 in 29.90 inHg Moderate breeze from south 14 mph
  16:00 22:00 36°F 0.55 in 29.75 inHg Moderate breeze from south 18 mph
  22:00 04:00 32°F 0.32 in 29.85 inHg Gentle breeze from south-southwest 11 mph
      Temperature Precip Pressure Wind  
Friday
03/02/2018
04:00 10:00 28°F 0.41 in 29.93 inHg Gentle breeze from south-southwest 12 mph
  10:00 16:00 32°F 0.24 in 30.06 inHg Gentle breeze from south-southwest 11 mph
  16:00 22:00 32°F 0.22 in 30.08 inHg Gentle breeze from south-southwest 8 mph
  22:00 04:00 28°F 0.22 in 30.15 inHg Light breeze from south-southwest 7 mph
      Temperature Precip Pressure Wind  
Saturday
03/03/2018
04:00 10:00 25°F 0.13 in 30.19 inHg Light breeze from east-southeast 4 mph
  10:00 16:00 32°F   30.25 inHg Light air from south 3 mph
  16:00 22:00 36°F   30.17 inHg Light air from west 2 mph
  22:00 04:00 27°F   30.17 inHg Light breeze from east-northeast 4 mph
      Temperature Precip Pressure Wind  
Sunday
03/04/2018
04:00 10:00 19°F   30.11 inHg Light breeze from east-northeast 6 mph
  10:00 16:00 37°F   30.08 inHg Light air from south 3 mph
  16:00 22:00 41°F   29.98 inHg Light breeze from south-southwest 4 mph
  22:00 04:00 30°F   30.00 inHg Light breeze from east-northeast 6 mph
How Close Are We To this Month's Temperature Record ?
Updated Friday, Feb 23, 2018- 3:55:00 PM

Current Temperature: 37.6°F

February's High: Temperature Record 70.3°F - Set on Sun, Feb 7, 2016 - 2:27:25 PM
We are currently 32.7°F Less than this Month's record High

February's Low: Temperature Record 21.9°F - Set on Fri, Feb 23, 2018 - 6:14:29 AM
We are currently 15.7°F More than this Month's record Low

Weather History For Friday, February 23, 2018


On this Day - In Weather History ...
Data courtesy of weatherforyou.com
powered by Cumulus v1.9.3 (1059)
Ambient Weather VWS v14.00
Top Contact Website Map Copyright © 2007 - 2018 Foresthillweather.com Never base important decisions on this or any weather information obtained from the Internet